Edinburgh Airport, United Kingdom

10:40 PM BST on July 25, 2017 (GMT +0100)
Edinburgh Airport

Weather History for EGPH - June, 2012

Change the Weather History Date:

Saturday, June 23, 2012

  Actual Average Record
Temperature  
Mean Temperature 54 °F -  
Max Temperature 59 °F 65 °F 69 °F (2005)
Min Temperature 50 °F 50 °F 39 °F (2015)
Degree Days  
Heating Degree Days 10    
Growing Degree Days 4 (Base 50)    
Moisture  
Dew Point 50 °F    
Average Humidity 86    
Maximum Humidity 100    
Minimum Humidity 67    
Precipitation  
Precipitation 0.00 in 0.07 in - ()
Sea Level Pressure  
Sea Level Pressure 29.71 in    
Wind  
Wind Speed 12 mph ()    
Max Wind Speed 23 mph    
Max Gust Speed 34 mph    
Visibility 6.0 miles    
Events Rain    
Averages and records for this station are not official NWS values.
T = Trace of Precipitation, MM = Missing Value Source: Averaged Metar Reports

Daily Weather History Graph

Daily Weather History Graph

Search for Another Location

Airport or City:

Trip Planner

Search our weather history database for the weather conditions in past years. The results will help you decide how hot, cold, wet, or windy it might be!

Date:

Astronomy

Jun. 23, 2012 Rise Set
Actual Time 4:27 AM BST 10:03 PM BST
Civil Twilight 3:25 AM BST 11:06 PM BST
Nautical Twilight 1:48 AM BST 12:43 AM BST
Astronomical Twilight Sun does not set Sun does not set
Moon 9:00 AM BST (6/23) 11:31 PM BST (6/23)
Length of Visible Light 19h 40m
Length of Day
17h 36m
Waxing Crescent, 14% of the Moon is Illuminated
Jun 23
Waxing Crescent
Jun 27
First Quarter
Jul 3
Full
Jul 11
Last Quarter
Jul 19
New

Hourly Weather History & Observations

Time (BST) Temp. Dew Point Humidity Pressure Visibility Wind Dir Wind Speed Gust Speed Precip Events Conditions
12:20 AM 50.0 °F 50.0 °F 100% 29.56 in 3.7 mi WSW 3.5 mph - N/A   Mostly Cloudy
12:50 AM 51.8 °F 50.0 °F 94% 29.56 in 3.7 mi West 2.3 mph - N/A   Mostly Cloudy
1:20 AM 51.8 °F 51.8 °F 100% 29.56 in 3.7 mi WSW 5.8 mph - N/A   Mostly Cloudy
1:50 AM 53.6 °F 51.8 °F 94% 29.56 in 6.2 mi WSW 5.8 mph - N/A   Overcast
2:20 AM 53.6 °F 53.6 °F 100% 29.56 in 6.2 mi WSW 10.4 mph - N/A Rain Light Rain
2:50 AM 53.6 °F 51.8 °F 94% 29.59 in 6.2 mi WSW 12.7 mph - N/A   Overcast
3:20 AM 53.6 °F 51.8 °F 94% 29.59 in 6.2 mi WSW 10.4 mph - N/A   Overcast
3:50 AM 53.6 °F 51.8 °F 94% 29.59 in 6.2 mi WSW 10.4 mph - N/A Rain Light Rain
4:20 AM 53.6 °F 50.0 °F 88% 29.59 in 5.0 mi WSW 13.8 mph - N/A Rain Rain
4:50 AM 51.8 °F 50.0 °F 94% 29.62 in 6.2 mi WSW 13.8 mph - N/A Rain Rain
5:20 AM 51.8 °F 50.0 °F 94% 29.62 in 6.2 mi WSW 13.8 mph - N/A Rain Light Rain
5:50 AM 51.8 °F 50.0 °F 94% 29.62 in 6.2 mi WSW 16.1 mph - N/A Rain Light Rain
6:20 AM 51.8 °F 50.0 °F 94% 29.62 in 6.2 mi WSW 16.1 mph - N/A Rain Light Rain
6:50 AM 53.6 °F 50.0 °F 88% 29.65 in 6.2 mi WSW 16.1 mph - N/A   Mostly Cloudy
7:20 AM 53.6 °F 51.8 °F 94% 29.65 in 6.2 mi WSW 19.6 mph - N/A Rain Light Rain
7:50 AM 53.6 °F 50.0 °F 88% 29.65 in 6.2 mi WSW 19.6 mph - N/A   Mostly Cloudy
8:20 AM 53.6 °F 50.0 °F 88% 29.68 in 6.2 mi WSW 20.7 mph 34.5 mph N/A   Light Drizzle
8:50 AM 53.6 °F 50.0 °F 88% 29.68 in 6.2 mi WSW 21.9 mph - N/A   Light Drizzle
9:20 AM 53.6 °F 50.0 °F 88% 29.71 in 6.2 mi WSW 19.6 mph - N/A   Light Drizzle
9:50 AM 53.6 °F 50.0 °F 88% 29.71 in 6.2 mi WSW 21.9 mph - N/A   Overcast
10:20 AM 53.6 °F 50.0 °F 88% 29.71 in 6.2 mi WSW 19.6 mph - N/A   Light Drizzle
10:50 AM 53.6 °F 50.0 °F 88% 29.74 in 5.0 mi WSW 18.4 mph - N/A Rain Light Rain
11:20 AM 53.6 °F 50.0 °F 88% 29.74 in 5.0 mi WSW 19.6 mph - N/A Rain Light Rain
11:50 AM 55.4 °F 50.0 °F 82% 29.74 in 6.2 mi WSW 23.0 mph - N/A   Mostly Cloudy
12:50 PM 55.4 °F 50.0 °F 82% 29.77 in 6.2 mi WSW 19.6 mph - N/A   Overcast
1:20 PM 55.4 °F 48.2 °F 77% 29.77 in 6.2 mi WSW 17.3 mph - N/A   Overcast
1:50 PM 55.4 °F 48.2 °F 77% 29.77 in 6.2 mi WSW 19.6 mph - N/A Rain Light Rain
2:20 PM 53.6 °F 48.2 °F 82% 29.77 in 6.2 mi West 15.0 mph - N/A Rain Light Rain
2:50 PM 55.4 °F 50.0 °F 82% 29.77 in 6.2 mi West 15.0 mph - N/A Rain Light Rain
3:20 PM 57.2 °F 48.2 °F 72% 29.77 in 6.2 mi West 16.1 mph - N/A   Scattered Clouds
3:50 PM 59.0 °F 50.0 °F 72% 29.77 in 6.2 mi WSW 17.3 mph - N/A   Scattered Clouds
4:20 PM 59.0 °F 48.2 °F 67% 29.77 in 6.2 mi West 19.6 mph - N/A   Mostly Cloudy
4:50 PM 59.0 °F 50.0 °F 72% 29.77 in 6.2 mi WSW 17.3 mph - N/A   Mostly Cloudy
5:20 PM 59.0 °F 48.2 °F 67% 29.77 in 6.2 mi West 16.1 mph - N/A   Scattered Clouds
5:50 PM 59.0 °F 48.2 °F 67% 29.77 in 6.2 mi West 15.0 mph - N/A   Scattered Clouds
6:20 PM 57.2 °F 50.0 °F 77% 29.77 in 6.2 mi West 10.4 mph - N/A   Mostly Cloudy
6:50 PM 57.2 °F 50.0 °F 77% 29.77 in 6.2 mi West 10.4 mph - N/A   Mostly Cloudy
7:20 PM 59.0 °F 50.0 °F 72% 29.80 in 6.2 mi West 13.8 mph - N/A   Mostly Cloudy
7:50 PM 57.2 °F 50.0 °F 77% 29.80 in 6.2 mi West 11.5 mph - N/A   Mostly Cloudy
8:20 PM 57.2 °F 50.0 °F 77% 29.80 in 6.2 mi WSW 13.8 mph - N/A   Mostly Cloudy
8:50 PM 55.4 °F 50.0 °F 82% 29.80 in 6.2 mi WSW 15.0 mph - N/A   Mostly Cloudy
9:20 PM 53.6 °F 51.8 °F 94% 29.80 in 6.2 mi WSW 13.8 mph - N/A   Scattered Clouds
9:50 PM 53.6 °F 50.0 °F 88% 29.80 in 6.2 mi WSW 9.2 mph - N/A   Partly Cloudy
10:20 PM 53.6 °F 50.0 °F 88% 29.80 in - WSW 9.2 mph - N/A   Clear
10:50 PM 53.6 °F 50.0 °F 88% 29.80 in 6.2 mi WSW 10.4 mph - N/A   Partly Cloudy
11:20 PM 51.8 °F 50.0 °F 94% 29.77 in 6.2 mi WSW 8.1 mph - N/A   Partly Cloudy
11:50 PM 53.6 °F 50.0 °F 88% 29.77 in 6.2 mi WSW 8.1 mph - N/A   Partly Cloudy